[Date Prev][Date Next][Thread Prev][Thread Next][Date Index][Thread Index][JAMSAT Home]

[jamsat-news:1843] jas2info #324 / CUTE-1 #7 / XI-IV #5


========================   最新情報   ==============================

        Last updated  20Sep2003  21:15(JST)   #324

====================================================================
   
1)アマチュア通信衛星情報、FOシリーズの軌道要素、テレメトリ、
QSOの状況等をまとめてみました.
 
 新たにCUTE−気XI-IVの観測テレメトリーの一部も掲載させて頂きました。

 ◆陛豕工業大学 CUTE-気離曄璽爛據璽
     http://lss.mes.titech.ac.jp/ssp/cubesat/index.html
 (東京大学 XI-IVのホームページ
     http://www.space.t.u-tokyo.ac.jp/cubesat/index.html 
   
。藤蓮檻横垢錬横娃娃廓9月20日(土)の14:24(JST)のパスでは
 アナログ系運用でCWテレメトリーが聞こえてきました。ここにその取得した
 テレメトリーと分析結果を報告しておきます。
 
AS34927C  20Sep2003
14:24-14:41(JST)
AOS   MEL  LOS  Elev
349   297  245  14.4
Freq. 435.803-.790MHz
TAPE No.126 B 520-1320)
                                                   93 B0 62 B9 B7 B9 B8 B4  
HI HI A6 C7 95 DE 85 9E 10 0D 00 3B 63 1D 7D 45 94 93 B0 9D B9 B7 B9 B8 B4 
HI HI A6 07 90 DD 87 9E 10 0D 00 3B 70 20 7E 45 91 91 B0 57 B9 B7 B8 B8 B4 
HI HI A6 C7 90 DD 8C 9E 10 0D 00 3B 66 20 7F 60 91 90 B0 B3 B9 B7 B9 B8 B4 
HI HI A6 C7 90 DD 92 9E 10 0D 00 3B 7D 22 74 60 90 91 9F 78 B8 B7 B8 B8 B4 
HI HI A6 C7 90 DD 97 9E 10 0D 00 3B 54 25 82 60 91 90 B0 6F B9 B7 B8 B8 B4 
HI HI A6 C7 90 DD 9C 9E 10 0D 00 3B 7C 24 7D 60 90 90 B0 7B B9 B7 B8 B8 B4 
HI HI A6 C7 90 DD 82 9E 10 0D 00 3B 58 2F 7E 60 90 90 B0 86 B9 B7 B8 B8 B4 
HI HI A6 C7 90 DD 87 9E 10 0D 00 3B 74 30 86 60 90 90 B0 4E B9 B7 B8 B8 B4 
HI HI A6 C7 90 DD 8C 9E 10 0D 00 3B 57 34 85 60 90 90 B0 87 B9 B7 B8 B8 B4  
HI HI A6 C7 90 DD 95 9E 10 0D 00 3B 5E 39 84 60 91 90 B0 76 B9 B7 B8 B8 B4
HI HI A6 C7 90 DD 96 9E 10 0D 00 3B 65 60 85 60 90 90 B0 6A B8 B7 B8 B8 B4 
HI HI A6 C7 90 DD 9D 9E 10 00 00 3B 41 42 84 60 90 90 B0 81 B8 B7 B8 B8 B4 
HI HI A6 C7 90 DD 82 9E 10 0D 00 3B 71 4F 8B 5F 8F 8F B0 92 B8 B6 B8 B8 B4 
HI HI A6 C7 90 DD 88 9E 10 0D 00 3B 61 58 87 6  90 91 B1 8D B8 B6 B8 B8 B4 
HI HI A6 C7 90 DD 8D 9E 10 0D 00 3B 6E 59 8B 60 8F 90 B0 79 B8 B6 B8 B8 B4 

AS34927C  20Sep2003
14:24-14:41(JST)
AOS   MEL  LOS  Elev
 12   241  195  89.2
Freq. 435.805-.788MHz
TAPE No.126 A 1650-2010 B 0-520) 
                                          5E 25 91 75 9F 95 B9 B7 B9 B8 B4  
HI HI A& C7 90 DD DD 9A 10 0D 00 3B 69 3B 5B 22 81 99 B0 92 B9 B7 B9 B8 B4
HI HI A6 C7 95 DD 83 9E 10 0D 00 3B 68 39 5B 23 7B 92 A0 92 B9 B7 B9 B8 B4
HI HI A6 07 90 DD 85 9E 1A 0D 00 3B 63 24 80 49 93 92 A1 83 B9 B7 B8 B8 B4 
HI HI A6 07 90 DD 8A 9E 10 0D 00 3B 62 2A 83 42 93 93 B0 76 B9 B7 B9 B9 B4 
HI HI A6 07 90 DD 90 9E 0A 0D 00 3B 7F 2F 75 43 92 93 B0 7F B9 B7 B8 B8 B4 
HI HI A6 C7 90 DD 95 9E 10 0D 00 3B 55 2F 7D 60 90 90 B0 85 B9 B7 B8 B8 B4 
HI HI A6 C7 90 DD 9A 9E 10 0D 00 3B 8A 39 87 60 90 91 B0 80 B9 B7 B8 B8 B4 
HI HI A6 C7 90 DD 90 9E 10 0D 00 3B 52 3E 80 60 90 90 B0 7D B9 B7 B8 B8 B4 
HI HI A6 C7 90 DD 90 9E 10 0D 00 3B OE 46 87 60 8F 90 B0 85 B8 B7 B8 B8 B4 
HI HI A6 C7 90 DD 90 9E 10 0D 00 3B 5F 48 85 60 8F 70 B0 86 B8 B7 B8 B8 B4 
HI HI A6 07 90 DD 90 9E 10 0D 00 3B 4F 4F 83 60 90 90 B0 8B B8 B7 B8 B8 B5
HI HI A6 C7 81 DD 95 9E 10 0D 00 3B 7E 4F 82 5F 8F 90 9F 84 B8 B6 B8 B8 B5 
HI HI A6 C7 90 DD 9A 9E 10 0D 00 3B 64 5C 87 60 8F 90 B0 81 B8 B6 B8 B8 B4 
HI HI A6 C7 90 DD 80 9E 10 0D 00 3B 88 63 81 60 8F 90 B0 75 B8 B6 B8 B8 B5 
HI HI A6 C7 90 DD 85 9E 10 25 00 3B 40 60 85 5F 8F 90 B0 8F B8 B6 B8 B8 B5 
HI HI A6 C7 90 DD 8A 9E 10 0D 00 3B 93 6E 7F 60 8F 90 B0 71 B8 B6 B8 B8 B5 
HI HI A6 C7 90 DD 90 9E 10 0D 00 3B 3E 74 85 60 8F 90 B0 91 B8 B6 B8 B8 B5 
HI HI A6 C7 90 DD 95 9E 10 0D 00 3B 92 73 80 60 8F 90 B0 88 B8 B6 B8 B8 B5 
HI HI A6 C7 90 DD 9B 9E 10 0E 00 3B 59 70 7E 60 8F 90 B0 81 B8 B6 B7 B8 B5 
HI HI A6 C7 90 DD 80 9E 0A 0D 00 3B 71 86 7E 60 90 90 B0 86 B8 B5 B7 B7 B5 
HI HI A6 C7 90 DD 85 9E 10 0D 00 3B 74 87 7E 60 90 90 B0 77 B8 B5 B7 B7 B5 
HI HI A6 C7 90 DD 8B 9E 10 0D 00 3B 5D 90 85 60 90 90 B0 76 B8 B5 B7 B7 B5
HI HI A6 C7 90 DD 90 9E 10 0D 00 3B 7F 90 82 60 90 90 B0 75 B8 B5 B7 B7 B5

東京工業大学のCUTE-気離謄譽瓮肇蠅取得できましたので一部を
 掲載させて頂きました。

CUTE1160CW
Sat 20Sep2003
18:13-18:22(JST)
Freq. 436.846-.829Hz
(CUTE-XI-IV   No.7 A 1660-2110) 
 
                               F FF 69 9F 
CUTE  8 A4    7F DB 6D08 4710 EF FF 6A 9F 
CUTE 76 A4 6D 7F DC 6D08 4710 FF FF 6A  
CUTE 86 A5 74 7F DB 6D08 4710 FF FF 6A 9F 
CUTE 79 A4 76 80 DA 6D08 4710 FF FF 6A 9F 
CUTE 83 A5 6F 80 DD 6D08 4710 FF FF 69 9F 
CUTE 87 A5 70 80 DD 6D08 4710 FF FF 69 A0 
CUTE 82 A5 6E 7F DA 6D08 4710 FF FF 69 A0 
CUTE 87 A4 73 7F DB 6D08 4710 FF FF 69 9F 
CUTE 84 A5 75 80 DB 6D08 4710 FF FF 69 9F 
CUTE 88 A4 76 80 D8 6D08 4710 FF FF 69  
CUTE 89 A4 7O 80 DB 6D08 4710 FF FF 
CUTE 81 A4 72 80 DD 6D08 4710 FF FF 
CUTE 83 A4 75 80 DA 6D08 4710 FF FF 5  9F 
CUTE             DB 6D08 4710 FF FF 
CUTE    A4       DB 6D08 4710 FF FF 69 9F 
CUTE 7F A4 74 80 DA 6D08 4710 FF FF 
CUTE 80 A5 76 80 DB 6D08 4719 FF FF 6A A0 
CUTE 86 A4 76 80 DB 6D08 4710 FF FF    AE 
CUTE 81 A4  5         08 4710 FF FF 69 9F 
CUTE  B A4 75 80 DB 6D08 4710 FF FF 6A  


E豕大学打のXI-IVのテレメトリが取得できましたので一部を掲載
 させて頂きました。

XI-IV1160CW
Sat 20Sep2003
18:23-18:36(JST)
Freq. 436.858-.839Hz
(TAPE CUTE-XI-IV  No.7 A 2110-2660) 

 A5655 O 

UT1WWW.SPACE.T.U-TOKYO.AC.JP 
UT20903BA 
UT39AB80054 
UT42D425C 
UT501A566 
UT65555556556 

UT1WWW.SPACE.T.U-TOKYO.AC.JP 
UT2090423 
UT39AB80055 
UT42D425A 
UT5000200 
UT65555555557 

UT1WWW.SPACE.T.U-TOKYO.AC.JP 
UT2090491 
UT39AB8005B 
UT42D4258 
UT5017620 
UT6 A55565555B 

UT1WWW.SPACE.T.U-TOKYO.AC.JP 
UT2 904FF 
UT39AB80 5F 
UT4 D4?57 
UT5       6 
UTB56 

WWW.SPACE.T.U-TOKYO.AC.JP 
UT2090568 
UT39AB8005B 
UT42D425A 
UT5004700 
UT6455555565C 

UT1WWW.SPACE.T.U-TOKYO.AC.JP 
UT20905D1 
UT39AB8005E 
UT42D425F 
UT5000200 
UT6565555565C 

UT1WWW.SPACE.T.U-TOKYO.AC.JP 
UT209063F 
UT39AB8005B 
UT4 2D425C 
UT501B764 
UT6565554555E 

UT1WWW.SPACE.T.U-TOKYO.AC.JP 

------------------------  FO-29の軌道要素 ------------------------------  
     
  ■ 軌道要素1:「jamsat−keps:1337」より         
          SB KEPS @ AMSAT  $ORB03250.N
          2Line Orbital Elements 03250.AMSAT

HR AMSAT ORBITAL ELEMENTS FOR AMATEUR SATELLITES IN NASA FORMAT
>FROM WA5QGD FORT WORTH,TX September 7, 2003
SEND SUBSCRIBE/UNSUBSCRIBE TO majordomo@amsat.org ONLY
BID: ORB03250.N

 DECODE 2-LINE ELSETS WITH THE FOLLOWING KEY:
1 AAAAAU 00  0  0 BBBBB.BBBBBBBB  .CCCCCCCC  00000-0  00000-0 0  DDDZ
2 AAAAA EEE.EEEE FFF.FFFF GGGGGGG HHH.HHHH III.IIII JJ.JJJJJJJJKKKKKZ
KEY: A-CATALOGNUM B-EPOCHTIME C-DECAY D-ELSETNUM E-INCLINATION F-RAAN
G-ECCENTRICITY H-ARGPERIGEE I-MNANOM J-MNMOTION K-ORBITNUM Z-CHECKSUM

FO-29
1 24278U 96046B   03248.85333735  .00000126  00000-0  16239-3 0  6330
2 24278  98.5673  13.3335 0351525  60.1696 303.3901 13.52887146348256

 ■ 軌道要素2:「jamsat−keps:1338」より 

        SB KEPS @ AMSAT  $ORB03250.O
        Orbital Elements  03250.OSCAR

HR AMSAT ORBITAL ELEMENTS FOR OSCAR SATELLITES
>FROM WA5QGD FORT WORTH,TX September 7, 2003
SEND SUBSCRIBE/UNSUBSCRIBE TO majordomo@amsat.org ONLY
BID: ORB03250.O
TO ALL RADIO AMATEURS BT

Satellite: FO-29
Catalog number: 24278
Epoch time:      03248.85333735
Element set:     633
Inclination:       98.5673 deg
RA of node:        13.3335 deg
Eccentricity:    0.0351525
Arg of perigee:    60.1696 deg
Mean anomaly:     303.3901 deg
Mean motion:   13.52887146 rev/day
Decay rate:       1.26e-06 rev/day^2
Epoch rev:           34825
Checksum:              310

------------------- FO-29(JAS-2)のテレメトリに関する情報 ----------------
 
2)上記2003年9月20日(土)のテレメトリの14:24(JST)のパスの
    最終行を分析しておきます。

AS34927C  20Sep2003
14:24-14:41(JST)
AOS   MEL  LOS  Elev
349   297  245  14.4
Freq. 435.803-.790MHz
TAPE No.126 B 520-1320)

HI HI A6 C7 90 DD 8D 9E 10 0D 00 3B 6E 59 8B 60 8F 90 B0 79 B8 B6 B8 B8 B4  

テレメトリ	内   容		換算値	単 位
		
3C	磁気センサーZ軸=	53921.6	[nT]
3D	磁気センサX軸	=	43627.4	[nT]
4A	太陽電池発生電流=	1362.8	[mA]
4B	B充放電電流	=	-118.4	[mA]
4C	B端子電圧	=	15.4	[V]
4D	B中間端子電圧	=	6.9	[V]
5A	バス電圧	=	17.3	[V]
5B	JTA送信電力	=	688.4	[mW]
5C 	構体温度1	=	10.4	[℃]
5D	構体温度2	=	11.2	[℃]
6A	構体温度3	=	10.4	[℃]
6B	構体温度4	=	10.4	[℃]
6C	Bセル温度	=	12.0	[℃]

 ============= FO-29(ふじ3号)のテレメトリ分析、QSO情報等 ==========   

3)[jamsat-bb:14022]のFO-29VYFBとしてJA6PLの井地 義智さんが
 投稿されていましたので転載させて頂きました。。

JA6PL 井地です。
FO-29の13:40〜のパスでCQ連発しました。
非常にFBにループできていました。

7M4DUI局から呼ばれ、59-59でした。
久し振りのQSOでした。
FO-29健在で安心しました。
-- 
de ja6pl@jamsat.or.jp
PM53IU(33.52.07N、130.43.07E)
Iji Yoshitomo 井地 義智

 ==========================================================================
 
 4)JARL のホームページに運用予定が記載されていましたので
   ご紹介します.
       ( http://www.jarl.or.jp/Japanese/3_Fuji/new/uy.htm )  
        
        ふじ3号(JAS−2)の運用 
        *** 運用予定について ***
   8月21日(木) 〜 9月10日(水)デジトーカ運用 
  * なお,運用予定は都合により,変更することがありますの,であらかじめご了承
    願います。
  照会先 : lab@jarl.or.jp 
 
      ふじ2号(JAS−1b)の運用 

 CWテレメトリの機能に障害が発生しています。詳細は「ふじ2号」の現況をご覧くだ
さい。運用はアナログ系の連続運用とします。 
        当分の間     アナログ系運用

  * なお,運用予定は都合により,変更することがありますの,で
あらかじめご了承願います。
 照会先 : lab@jarl.or.jp
 最新の情報はテレホンサービス(03−3942−1000)をお聞
きください。  
  
  ふじ2号(JAS−1b)の運用 

 CWテレメトリの機能に障害が発生しています。詳細は「ふじ2号」
の現況をご覧ください。
 運用はアナログ系の連続運用とします。 
     
-----------------------    FO−20(JAS-1b)道要素   ----------------------
  
  ■ 軌道要素1 :出典はFO-29「ふじ3号」に同じ.
  
FO-20
1 20480U 90013C   03225.81324528 -.00000045  00000-0 -22540-4 0  5277
2 20480  99.0666 155.6367 0540827 324.9219  31.7349 12.83334568633126
 
  ■ 軌道要素2 :出典はFO−29「ふじ3号」に同じ.
               
Satellite: FO-20
Catalog number: 20480
Epoch time:      03225.81324528
Element set:     527
Inclination:       99.0666 deg
RA of node:       155.6367 deg
Eccentricity:    0.0540827
Arg of perigee:   324.9219 deg
Mean anomaly:      31.7349 deg
Mean motion:   12.83334568 rev/day
Decay rate:       -4.5e-07 rev/day^2
Epoch rev:           63312
Checksum:              306
--------------------------------------------------------------------
         ■ ふじ2号/FO−20/JAS-1b ■      
            
          「ふじ2号」 現況                          
                                                                     
